M0SWV Weather Reports


time (UTC)temp
C
wind
direction
speed
KPH
gust
KPH
rain 1hr
cm
rain 24hr
cm
rain mn
cm
humidity
%
barometer
mb
20260507170044 11 288 3.2 12.9 0.00 0.00 0.00 78 1015.9
20260507164530 11 272 3.2 11.3 0.00 0.00 0.00 78 1015.9
20260507163031 12 266 3.2 11.3 0.00 0.00 0.00 78 1015.8
20260507161530 12 0 3.2 11.3 0.00 0.00 0.00 77 1015.6
20260507160032 12 257 0.0 17.7 0.00 0.00 0.00 75 1015.7
20260507154530 12 249 3.2 16.1 0.00 0.00 0.00 72 1015.7
20260507153031 12 229 6.4 16.1 0.00 0.00 0.00 73 1015.6
20260507151529 12 0 4.8 20.9 0.00 0.00 0.00 73 1015.7
20260507150030 13 242 3.2 17.7 0.00 0.00 0.00 72 1015.6
20260507144530 13 223 9.7 17.7 0.00 0.00 0.00 70 1015.7
20260507143030 13 172 6.4 14.5 0.00 0.00 0.00 68 1015.8
20260507141531 14 0 4.8 16.1 0.00 0.00 0.00 68 1015.8
20260507140035 14 82 6.4 16.1 0.00 0.00 0.00 67 1016.0
20260507134530 13 158 4.8 16.1 0.00 0.00 0.00 69 1016.1
20260507133037 14 153 4.8 12.9 0.00 0.00 0.00 65 1016.1
20260507131532 14 124 4.8 14.5 0.00 0.00 0.00 68 1016.1
20260507130036 14 92 8.0 19.3 0.00 0.00 0.00 65 1016.1
20260507124529 14 164 9.7 17.7 0.00 0.00 0.00 67 1016.1
20260507123034 13 195 9.7 19.3 0.00 0.00 0.00 66 1016.2
20260507121533 13 137 4.8 11.3 0.00 0.00 0.00 71 1016.4
20260507120033 13 250 11.3 20.9 0.00 0.00 0.00 70 1016.4
20260507114531 12 205 4.8 14.5 0.00 0.00 0.00 73 1016.4
20260507113029 12 232 6.4 14.5 0.00 0.00 0.00 71 1016.6
20260507111530 13 117 6.4 12.9 0.00 0.00 0.00 72 1016.4
20260507110030 13 246 3.2 11.3 0.00 0.00 0.00 75 1016.5
20260507104532 13 144 4.8 11.3 0.00 0.00 0.00 74 1016.7
20260507103036 12 189 4.8 11.3 0.00 0.00 0.00 77 1016.6
20260507101530 12 0 0.0 4.8 0.00 0.00 0.00 78 1016.8
20260507100031 11 254 1.6 8.0 0.00 0.00 0.00 82 1017.0
20260507094533 10 101 0.0 6.4 0.00 0.00 0.00 84 1017.0
20260507093032 9 119 1.6 6.4 0.00 0.00 0.00 85 1017.0
20260507091538 8 219 1.6 9.7 0.00 0.00 0.00 86 1017.0
20260507090034 8 100 1.6 4.8 0.00 0.00 0.00 87 1017.1
20260507084540 8 0 0.0 4.8 0.00 0.00 0.00 87 1017.1
20260507083030 7 0 0.0 4.8 0.00 0.00 0.00 88 1017.1
20260507081530 7 114 1.6 4.8 0.00 0.00 0.00 88 1017.1
20260507080030 7 0 0.0 0.0 0.00 0.00 0.00 90 1017.2
20260507074533 7 0 0.0 0.0 0.00 0.00 0.00 91 1017.1
20260507073030 6 0 0.0 0.0 0.00 0.00 0.00 91 1017.0
20260507071533 6 0 0.0 0.0 0.00 0.00 0.00 92 1017.0
20260507070039 6 0 0.0 0.0 0.00 0.00 0.00 92 1016.9
20260507064529 6 0 0.0 0.0 0.00 0.00 0.00 92 1016.7
20260507063033 6 0 0.0 1.6 0.00 0.00 0.00 92 1016.8
20260507061533 6 98 1.6 4.8 0.00 0.00 0.00 92 1016.7
20260507060033 6 0 0.0 0.0 0.00 0.00 0.00 92 1016.6
20260507054532 6 0 0.0 0.0 0.00 0.00 0.00 92 1016.6
20260507053033 6 0 0.0 3.2 0.00 0.00 0.00 92 1016.5
20260507051532 6 0 0.0 0.0 0.00 0.00 0.00 92 1016.5
20260507050042 5 0 0.0 1.6 0.00 0.00 0.00 92 1016.5
20260507044534 5 0 0.0 1.6 0.00 0.00 0.00 92 1016.4
20260507043030 6 0 0.0 1.6 0.00 0.00 0.00 91 1016.4
20260507041532 6 0 0.0 3.2 0.00 0.00 0.00 91 1016.2
20260507040031 6 92 0.0 1.6 0.00 0.00 0.00 91 1016.3
20260507034534 6 115 1.6 3.2 0.00 0.00 0.00 91 1016.2
20260507033036 6 0 0.0 4.8 0.00 0.00 0.00 90 1016.2
20260507031537 6 109 0.0 3.2 0.00 0.00 0.00 90 1016.6
20260507030031 6 123 0.0 3.2 0.00 0.00 0.00 90 1016.5
20260507024537 6 0 0.0 3.2 0.00 0.00 0.00 90 1016.6
20260507023033 6 99 0.0 1.6 0.00 0.00 0.00 90 1016.4
20260507021535 6 0 0.0 0.0 0.00 0.00 0.00 89 1016.5
20260507020030 6 0 0.0 3.2 0.00 0.00 0.00 89 1016.5
20260507014542 6 0 0.0 1.6 0.00 0.00 0.00 89 1016.6
20260507013038 6 0 0.0 1.6 0.00 0.00 0.00 88 1016.5
20260507011541 6 0 0.0 3.2 0.00 0.00 0.00 88 1016.6
20260507010040 7 0 0.0 0.0 0.00 0.00 0.00 87 1016.6
20260507004529 7 0 0.0 3.2 0.00 0.00 0.00 87 1016.5
20260507003029 7 100 0.0 1.6 0.00 0.00 0.00 86 1016.7
20260507001544 7 0 0.0 0.0 0.00 0.00 0.00 85 1016.8
20260507000038 7 140 0.0 4.8 0.00 0.00 0.00 84 1016.8
20260506234537 7 111 1.6 9.7 0.00 0.00 0.00 84 1016.7
20260506233030 7 102 0.0 3.2 0.00 0.00 0.00 84 1016.8
20260506231534 7 0 0.0 0.0 0.00 0.00 0.00 82 1016.7
20260506230031 7 0 0.0 0.0 0.00 0.00 0.00 81 1016.7
20260506224534 7 0 0.0 0.0 0.00 0.00 0.00 80 1016.7
20260506223030 8 117 0.0 4.8 0.00 0.00 0.00 79 1016.6
20260506221530 8 0 0.0 9.7 0.00 0.00 0.00 79 1016.4
20260506220035 8 79 1.6 8.0 0.00 0.00 0.00 78 1016.4
20260506214535 8 0 0.0 6.4 0.00 0.00 0.00 77 1016.3
20260506213040 8 0 0.0 6.4 0.00 0.00 0.00 76 1016.1
20260506211540 8 111 0.0 4.8 0.00 0.00 0.00 74 1016.0
20260506210039 9 86 3.2 9.7 0.00 0.00 0.00 72 1016.0
20260506204533 9 105 1.6 9.7 0.00 0.00 0.00 70 1016.0
20260506203029 10 140 3.2 9.7 0.00 0.00 0.00 67 1015.8
20260506201536 10 163 0.0 6.4 0.00 0.00 0.00 67 1015.7
20260506200033 10 88 0.0 3.2 0.00 0.00 0.00 67 1015.5
20260506194532 10 0 0.0 4.8 0.00 0.00 0.00 66 1015.4
20260506193042 10 123 3.2 6.4 0.00 0.00 0.00 64 1015.3
20260506191534 11 0 0.0 3.2 0.00 0.00 0.00 68 1015.3
20260506190032 11 0 0.0 0.0 0.00 0.00 0.00 63 1015.2
20260506184531 11 0 0.0 0.0 0.00 0.00 0.00 63 1015.1
20260506183029 11 0 0.0 0.0 0.00 0.00 0.00 61 1015.1
20260506181540 11 0 0.0 3.2 0.00 0.00 0.00 65 1015.3
20260506180030 11 116 1.6 4.8 0.00 0.00 0.00 61 1015.1
20260506174536 11 99 1.6 6.4 0.00 0.00 0.00 60 1014.9
20260506173100 12 0 0.0 6.4 0.00 0.00 0.00 60 1015.1
20260506171540 12 115 3.2 9.7 0.00 0.00 0.00 58 1014.9